Location: Newark
(48.1500°N, 2.9667°W)
Time: 12:49:27
(UTC+00:00)

A-11 Canister half - Pass Details

Date: 28 January 2020
Orbit: 1524 x 1684 km, 47.3° (Epoch: 24 February)

Event Time Altitude Azimuth Distance (km) Brightness Sun altitude
Rises 21:19:51 0° 282° (WNW) 4,711 12.4 -42.1°
Reaches altitude 10° 21:22:52 10° 281° (W) 3,743 11.6 -42.6°
Enters shadow 21:29:49 54° 264° (W) 1,874 9.4 -43.6°
Maximum altitude 21:32:19 73° 199° (SSW) 1,652 - -44.0°
Drops below altitude 10° 21:42:05 10° 117° (ESE) 3,861 - -45.5°
Sets 21:45:16 0° 116° (ESE) 4,867 - -45.9°
